Volver al catálogo

TITAN 3C TRANSTAGE DEB

LostMEO
NORAD 38695·DEBRIS·🇺🇸 United States

Lanzado Sep 26, 1968 desde Cape Canaveral Space Force Station

Loading…

Próximos Pases (próximas 24 horas)

TLE

ObsoletoSource: Space-Track

Época: Jan 9, 2026, 17:39 UTC

1 38695U 68081V   26009.73578191 -.00000090  00000-0  00000-0 0  9992
2 38695   1.9319  22.3763 0438520 269.4944 164.5784  0.99391606 61778

Sigue TITAN 3C TRANSTAGE DEB en tiempo real con AllMySat

Download on the App Store